When you browse on this site, cookies collect data to enhance your experience and personalize the content and advertising you see.
Visit our Privacy Policy to learn more. By continuing to use the site, you agree to this use of cookies and data.
  • In Slovakia
  • List of Countries
  • For 7 days
  • Water Temperature
  • Weather Map
  • Weather Widgets
  • user-avatar
    Login

    Hourly Weather Lukin Ostrov

    Today, 31 March, Tuesday

    Time Temperature Precipitation Wind Pressure Humidity
    00:00 -13°C° 0 mm 5 mps 763 mmHg 89%
    01:00 -13°C° 0 mm 5 mps 763 mmHg 90%
    02:00 -14°C° 0 mm 5 mps 762 mmHg 90%
    03:00 -14°C° 0 mm 5 mps 762 mmHg 91%
    04:00 -15°C° 0 mm 4 mps 761 mmHg 91%
    05:00 -15°C° 0 mm 4 mps 761 mmHg 92%
    06:00 -14°C° 0 mm 4 mps 761 mmHg 90%
    07:00 -12°C° 0 mm 4 mps 760 mmHg 87%
    08:00 -11°C° 0 mm 5 mps 760 mmHg 84%
    09:00 -10°C° 0 mm 5 mps 759 mmHg 81%
    10:00 -9°C° 0 mm 6 mps 758 mmHg 77%
    11:00 -8°C° 0 mm 6 mps 757 mmHg 74%
    12:00 -7°C° 0 mm 7 mps 756 mmHg 72%
    13:00 -7°C° 0 mm 8 mps 755 mmHg 69%
    14:00 -7°C° 0 mm 8 mps 754 mmHg 67%
    15:00 -8°C° 0 mm 9 mps 753 mmHg 69%
    16:00 -9°C° 0 mm 9 mps 751 mmHg 70%
    17:00 -9°C° 0 mm 10 mps 750 mmHg 72%
    18:00 -9°C° 0.1 mm 10 mps 749 mmHg 78%
    19:00 -10°C° 0.1 mm 10 mps 748 mmHg 84%
    20:00 -10°C° 0.1 mm 10 mps 746 mmHg 90%
    21:00 -10°C° 0.1 mm 10 mps 745 mmHg 91%
    22:00 -10°C° 0.1 mm 9 mps 744 mmHg 91%
    23:00 -10°C° 0.1 mm 9 mps 743 mmHg 92%

    Tomorrow, 1 April, Wednesday

    Time Temperature Precipitation Wind Pressure Humidity
    00:00 -10°C° 0.3 mm 9 mps 743 mmHg 93%
    01:00 -9°C° 0.3 mm 9 mps 742 mmHg 94%
    02:00 -8°C° 0.3 mm 8 mps 742 mmHg 94%
    03:00 -8°C° 0.3 mm 8 mps 741 mmHg 95%
    04:00 -8°C° 0.3 mm 7 mps 741 mmHg 95%
    05:00 -6°C° 0.3 mm 6 mps 740 mmHg 95%
    06:00 -6°C° 0.2 mm 6 mps 740 mmHg 95%
    07:00 -5°C° 0.2 mm 5 mps 740 mmHg 95%
    08:00 -4°C° 0.2 mm 5 mps 740 mmHg 95%
    09:00 -3°C° 0.2 mm 4 mps 740 mmHg 95%
    10:00 -3°C° 0.2 mm 4 mps 740 mmHg 95%
    11:00 -2°C° 0.2 mm 3 mps 740 mmHg 95%
    12:00 -1°C° 0.2 mm 3 mps 740 mmHg 96%
    13:00 -1°C° 0.2 mm 3 mps 740 mmHg 96%
    14:00 -1°C° 0.2 mm 2 mps 740 mmHg 96%
    15:00 -1°C° 0.1 mm 2 mps 740 mmHg 95%
    16:00 -1°C° 0.1 mm 2 mps 739 mmHg 94%
    17:00 -2°C° 0.1 mm 2 mps 739 mmHg 93%
    18:00 -3°C° 0.1 mm 2 mps 739 mmHg 93%
    19:00 -4°C° 0.1 mm 2 mps 739 mmHg 93%
    20:00 -5°C° 0.1 mm 2 mps 740 mmHg 94%
    21:00 -6°C° 0 mm 2 mps 739 mmHg 94%
    22:00 -8°C° 0 mm 3 mps 739 mmHg 95%
    23:00 -8°C° 0 mm 3 mps 739 mmHg 95%

    Day after tomorrow, 2 April, Thursday

    Time Temperature Precipitation Wind Pressure Humidity
    00:00 -9°C° 0 mm 3 mps 739 mmHg 95%
    01:00 -11°C° 0 mm 4 mps 739 mmHg 96%
    02:00 -11°C° 0 mm 4 mps 739 mmHg 96%
    03:00 -11°C° 0 mm 4 mps 739 mmHg 95%
    04:00 -12°C° 0 mm 4 mps 739 mmHg 95%
    05:00 -12°C° 0 mm 4 mps 739 mmHg 95%
    06:00 -11°C° 0 mm 4 mps 739 mmHg 94%
    07:00 -10°C° 0 mm 4 mps 738 mmHg 93%
    08:00 -9°C° 0 mm 4 mps 738 mmHg 92%
    09:00 -8°C° 0 mm 4 mps 738 mmHg 90%
    10:00 -7°C° 0 mm 4 mps 738 mmHg 88%
    11:00 -5°C° 0 mm 4 mps 738 mmHg 86%
    12:00 -5°C° 0 mm 4 mps 738 mmHg 84%
    13:00 -4°C° 0 mm 4 mps 739 mmHg 82%
    14:00 -4°C° 0 mm 4 mps 739 mmHg 80%
    15:00 -4°C° 0 mm 4 mps 738 mmHg 81%
    16:00 -4°C° 0 mm 3 mps 738 mmHg 83%
    17:00 -4°C° 0 mm 3 mps 738 mmHg 84%
    18:00 -5°C° 0 mm 3 mps 738 mmHg 85%
    19:00 -6°C° 0 mm 3 mps 737 mmHg 86%
    20:00 -7°C° 0 mm 4 mps 737 mmHg 87%
    21:00 -7°C° 0 mm 4 mps 736 mmHg 90%
    22:00 -7°C° 0 mm 5 mps 735 mmHg 92%
    23:00 -6°C° 0 mm 6 mps 735 mmHg 95%

    3 April, Friday

    Time Temperature Precipitation Wind Pressure Humidity
    00:00 -7°C° 0.5 mm 7 mps 734 mmHg 95%
    01:00 -6°C° 0.5 mm 7 mps 733 mmHg 96%
    02:00 -5°C° 0.5 mm 8 mps 732 mmHg 97%
    03:00 -5°C° 0.5 mm 8 mps 731 mmHg 96%
    04:00 -4°C° 0.5 mm 8 mps 730 mmHg 96%
    05:00 -4°C° 0.5 mm 8 mps 729 mmHg 96%
    06:00 -4°C° 0.4 mm 8 mps 728 mmHg 96%
    07:00 -3°C° 0.4 mm 9 mps 728 mmHg 97%
    08:00 -3°C° 0.4 mm 9 mps 727 mmHg 98%
    09:00 -2°C° 0.5 mm 8 mps 727 mmHg 92%
    10:00 -2°C° 0.5 mm 7 mps 727 mmHg 86%
    11:00 -2°C° 0.5 mm 6 mps 727 mmHg 80%
    12:00 -2°C° 0.1 mm 7 mps 728 mmHg 80%
    13:00 -2°C° 0.1 mm 7 mps 728 mmHg 80%
    14:00 -2°C° 0.1 mm 7 mps 729 mmHg 80%
    15:00 -2°C° 0.1 mm 7 mps 729 mmHg 80%
    16:00 -2°C° 0.1 mm 6 mps 729 mmHg 79%
    17:00 -2°C° 0.1 mm 6 mps 729 mmHg 79%
    18:00 -3°C° 0.2 mm 6 mps 730 mmHg 84%
    19:00 -4°C° 0.2 mm 6 mps 730 mmHg 89%
    20:00 -4°C° 0.2 mm 6 mps 730 mmHg 94%
    21:00 -6°C° 0 mm 7 mps 731 mmHg 91%
    22:00 -7°C° 0 mm 8 mps 732 mmHg 88%
    23:00 -9°C° 0 mm 9 mps 732 mmHg 85%

    4 April, Saturday

    Time Temperature Precipitation Wind Pressure Humidity
    00:00 -9°C° 0 mm 9 mps 733 mmHg 85%
    01:00 -10°C° 0 mm 9 mps 734 mmHg 85%
    02:00 -11°C° 0 mm 9 mps 734 mmHg 85%
    03:00 -11°C° 0 mm 9 mps 735 mmHg 85%
    04:00 -11°C° 0 mm 9 mps 736 mmHg 85%
    05:00 -12°C° 0 mm 9 mps 736 mmHg 85%
    06:00 -11°C° 0 mm 9 mps 737 mmHg 85%
    07:00 -11°C° 0 mm 9 mps 737 mmHg 86%
    08:00 -10°C° 0 mm 9 mps 738 mmHg 86%
    09:00 -10°C° 0.1 mm 9 mps 739 mmHg 87%
    10:00 -9°C° 0.1 mm 9 mps 739 mmHg 88%
    11:00 -8°C° 0.1 mm 9 mps 740 mmHg 89%
    12:00 -6°C° 0.1 mm 9 mps 740 mmHg 89%
    13:00 -6°C° 0.1 mm 9 mps 741 mmHg 90%
    14:00 -5°C° 0.1 mm 9 mps 741 mmHg 90%
    15:00 -5°C° 0.3 mm 8 mps 742 mmHg 91%
    16:00 -5°C° 0.3 mm 8 mps 743 mmHg 92%
    17:00 -4°C° 0.3 mm 8 mps 743 mmHg 93%
    18:00 -4°C° 0.1 mm 7 mps 744 mmHg 92%
    19:00 -4°C° 0.1 mm 6 mps 745 mmHg 92%
    20:00 -4°C° 0.1 mm 5 mps 745 mmHg 92%
    21:00 -4°C° 0 mm 5 mps 746 mmHg 93%
    22:00 -5°C° 0 mm 5 mps 748 mmHg 93%
    23:00 -5°C° 0 mm 5 mps 749 mmHg 94%

    5 April, Sunday

    Time Temperature Precipitation Wind Pressure Humidity
    00:00 -5°C° 0.1 mm 6 mps 750 mmHg 91%
    01:00 -5°C° 0.1 mm 6 mps 751 mmHg 89%
    02:00 -7°C° 0.1 mm 7 mps 753 mmHg 86%
    03:00 -7°C° 0 mm 7 mps 754 mmHg 87%
    04:00 -7°C° 0 mm 7 mps 756 mmHg 88%
    05:00 -8°C° 0 mm 7 mps 757 mmHg 89%
    06:00 -8°C° 0 mm 6 mps 758 mmHg 88%
    07:00 -6°C° 0 mm 6 mps 760 mmHg 87%
    08:00 -6°C° 0 mm 5 mps 761 mmHg 86%
    09:00 -5°C° 0 mm 5 mps 762 mmHg 82%
    10:00 -5°C° 0 mm 5 mps 763 mmHg 79%
    11:00 -4°C° 0 mm 5 mps 764 mmHg 75%
    12:00 -4°C° 0 mm 5 mps 764 mmHg 75%
    13:00 -3°C° 0 mm 4 mps 765 mmHg 76%
    14:00 -2°C° 0 mm 4 mps 766 mmHg 76%
    15:00 -2°C° 0 mm 3 mps 766 mmHg 78%
    16:00 -2°C° 0 mm 3 mps 766 mmHg 80%
    17:00 -2°C° 0 mm 3 mps 767 mmHg 82%
    18:00 -4°C° 0 mm 3 mps 767 mmHg 83%
    19:00 -5°C° 0 mm 3 mps 767 mmHg 84%
    20:00 -6°C° 0 mm 3 mps 767 mmHg 84%
    21:00 -6°C° 0 mm 3 mps 767 mmHg 84%
    22:00 -7°C° 0 mm 4 mps 767 mmHg 83%
    23:00 -7°C° 0 mm 4 mps 766 mmHg 83%
    Show more